User: anonymous
Location: Unspecified
(0.0000°N, 0.0000°E)
Time: 16:00:52
(UTC+02:00)
Language:

Cosmos 773 Rocket - Orbit

View from above orbital plane
View from above orbital plane
View from above satellite
View from above satellite

Ground track
Ground track

The orbit data is extracted from the following two-line orbital elements,

1 08344U 75094B   14244.35742057  .00000096  00000-0  39720-4 0  5460
2 08344 074.0584 204.4997 0022193 358.1977 155.0372 14.38778732 39006
Epoch (UTC): 01 September 2014 08:34:41
Eccentricity: 0.0022193
inclination: 74.0584°
perigee height: 746 km
apogee height: 778 km
right ascension of ascending node: 204.4997°
argument of perigee: 358.1977°
revolutions per day: 14.38778732
mean anomaly at epoch: 155.0372°
orbit number at epoch: 3900

The dashed part of the orbit path shows where the satellite is in the earth's shadow,  

DLR